TimeMDT,TemperatureF,Dew PointF,Humidity,Sea Level PressureIn,VisibilityMPH,Wind Direction,Wind SpeedMPH,Gust SpeedMPH,PrecipitationIn,Events,Conditions,WindDirDegrees,DateUTC
12:53 AM,30.0,14.0,51,29.78,10.0,East,10.4,-,N/A,,Clear,100,2013-04-30 06:53:00
1:53 AM,32.0,12.9,45,29.79,10.0,Calm,Calm,-,N/A,,Mostly Cloudy,0,2013-04-30 07:53:00
2:53 AM,30.9,16.0,54,29.83,10.0,ESE,5.8,-,N/A,,Overcast,110,2013-04-30 08:53:00
3:53 AM,30.0,14.0,51,29.84,10.0,SE,9.2,-,N/A,,Scattered Clouds,140,2013-04-30 09:53:00
4:53 AM,28.9,14.0,54,29.88,10.0,Calm,Calm,-,N/A,,Overcast,0,2013-04-30 10:53:00
5:53 AM,26.1,10.0,51,29.90,10.0,WSW,6.9,-,N/A,,Scattered Clouds,250,2013-04-30 11:53:00
6:53 AM,28.0,10.0,47,29.90,10.0,Calm,Calm,-,N/A,,Scattered Clouds,0,2013-04-30 12:53:00
7:53 AM,30.0,12.9,49,29.93,10.0,NNW,3.5,-,N/A,,Overcast,340,2013-04-30 13:53:00
8:53 AM,33.1,10.9,40,29.94,10.0,NE,3.5,-,N/A,,Overcast,50,2013-04-30 14:53:00
9:53 AM,35.1,8.1,33,29.93,10.0,Calm,Calm,-,N/A,,Overcast,0,2013-04-30 15:53:00
10:53 AM,37.0,9.0,31,29.94,10.0,South,5.8,-,N/A,,Mostly Cloudy,170,2013-04-30 16:53:00
11:53 AM,35.1,10.0,35,29.97,10.0,East,3.5,-,0.00,,Overcast,100,2013-04-30 17:53:00
12:53 PM,36.0,9.0,33,29.99,10.0,Calm,Calm,-,N/A,,Overcast,0,2013-04-30 18:53:00
1:53 PM,42.1,7.0,24,29.94,10.0,North,8.1,-,N/A,,Scattered Clouds,360,2013-04-30 19:53:00
2:53 PM,41.0,3.9,21,29.96,10.0,NNW,6.9,-,N/A,,Mostly Cloudy,340,2013-04-30 20:53:00
3:53 PM,42.1,1.9,19,29.96,10.0,Variable,6.9,-,N/A,,Partly Cloudy,0,2013-04-30 21:53:00
4:53 PM,41.0,-0.0,18,29.98,10.0,North,10.4,17.3,N/A,,Mostly Cloudy,350,2013-04-30 22:53:00
5:53 PM,41.0,1.9,20,30.00,10.0,North,5.8,-,N/A,,Overcast,360,2013-04-30 23:53:00
6:53 PM,36.0,18.0,48,30.05,10.0,NNE,24.2,34.5,N/A,,Overcast,30,2013-05-01 00:53:00
7:53 PM,30.9,23.0,72,30.11,10.0,NE,24.2,-,N/A,,Overcast,40,2013-05-01 01:53:00
8:53 PM,28.0,21.0,75,30.17,10.0,NE,19.6,-,N/A,,Clear,40,2013-05-01 02:53:00
9:53 PM,26.1,21.0,81,30.22,10.0,NE,11.5,-,N/A,,Clear,50,2013-05-01 03:53:00
10:53 PM,27.0,19.9,75,30.23,10.0,NE,10.4,-,N/A,,Clear,40,2013-05-01 04:53:00
11:53 PM,26.1,19.0,75,30.26,10.0,East,3.5,-,N/A,,Scattered Clouds,80,2013-05-01 05:53:00